Weather History for Mojave, CA

Change the Weather History Date:

Sunday, January 27, 2013

  Actual Average Record
Temperature  
Mean Temperature 44 °F -  
Max Temperature 48 °F 59 °F 70 °F (1986)
Min Temperature 39 °F 34 °F 24 °F (1972)
Degree Days  
Heating Degree Days 22    
Moisture  
Dew Point 30 °F    
Average Humidity 61    
Maximum Humidity 76    
Minimum Humidity 46    
Precipitation  
Precipitation 0.00 in - - ()
Sea Level Pressure  
Sea Level Pressure 29.94 in    
Wind  
Wind Speed 21 mph (West)    
Max Wind Speed 40 mph    
Max Gust Speed 51 mph    
Visibility 10 miles    
Events      
Averages and records for this station are not official NWS values.
T = Trace of Precipitation, MM = Missing Value Source: NWS Daily Summary

Daily Weather History Graph

Daily Weather History Graph

Search for Another Location

Airport:

Trip Planner

Search our weather history database for the weather conditions in past years. The results will help you decide how hot, cold, wet, or windy it might be!

Date:

Astronomy

Jan. 27, 2013 Rise Set
Actual Time 6:54 AM PST 5:16 PM PST
Civil Twilight 6:27 AM PST 5:43 PM PST
Nautical Twilight 5:57 AM PST 6:13 PM PST
Astronomical Twilight 5:27 AM PST 6:43 PM PST
Moon 6:11 PM PST (1/27) 6:53 AM PST (1/27)
Length of Visible Light 11h 15m
Length of Day
10h 21m
Full, 100% of the Moon is Illuminated
Jan 27
Full
Feb 3
Last Quarter
Feb 9
New
Feb 17
First Quarter
Feb 25
Full

Hourly Weather History & Observations

Time (PST) Temp. Windchill Dew Point Humidity Pressure Visibility Wind Dir Wind Speed Gust Speed Precip Events Conditions
12:15 AM 48.2 °F - 39.2 °F 71% 29.95 in 10.0 mi WSW 10.4 mph 16.1 mph N/A   Clear
12:35 AM 48.2 °F - 37.4 °F 66% 29.94 in 10.0 mi WSW 10.4 mph - N/A   Clear
12:55 AM 48.2 °F - 37.4 °F 66% 29.94 in 10.0 mi WSW 12.7 mph 19.6 mph N/A   Clear
1:15 AM 48.2 °F - 37.4 °F 66% 29.94 in 10.0 mi West 17.3 mph 24.2 mph N/A   Clear
1:35 AM 48.2 °F - 39.2 °F 71% 29.95 in 10.0 mi WSW 13.8 mph 24.2 mph N/A   Clear
1:55 AM 48.2 °F - 39.2 °F 71% 29.94 in 10.0 mi WSW 13.8 mph - N/A   Clear
2:15 AM 46.4 °F 42.9 °F 39.2 °F 76% 29.94 in 10.0 mi West 6.9 mph 16.1 mph N/A   Clear
2:35 AM 48.2 °F - 37.4 °F 66% 29.94 in 10.0 mi WSW 6.9 mph - N/A   Clear
2:55 AM 48.2 °F - 39.2 °F 71% 29.94 in 10.0 mi SW 19.6 mph - N/A   Clear
3:15 AM 48.2 °F - 37.4 °F 66% 29.94 in 10.0 mi SW 10.4 mph - N/A   Clear
3:35 AM 46.4 °F 42.9 °F 37.4 °F 71% 29.94 in 10.0 mi SW 6.9 mph - N/A   Clear
4:15 AM 44.6 °F 40.2 °F 37.4 °F 76% 29.93 in 10.0 mi WSW 8.1 mph - N/A   Clear
4:35 AM 44.6 °F 42.2 °F 35.6 °F 71% 29.94 in 10.0 mi West 4.6 mph - N/A   Clear
4:55 AM 44.6 °F 39.2 °F 35.6 °F 71% 29.94 in 10.0 mi West 10.4 mph 17.3 mph N/A   Clear
5:15 AM 41.0 °F 30.7 °F 33.8 °F 76% 29.93 in 10.0 mi WNW 25.3 mph 33.4 mph N/A   Partly Cloudy
5:55 AM 41.0 °F 30.5 °F 33.8 °F 76% 29.94 in 10.0 mi West 26.5 mph 40.3 mph N/A   Mostly Cloudy
6:15 AM 41.0 °F 30.5 °F 32.0 °F 70% 29.94 in 10.0 mi West 26.5 mph 34.5 mph N/A   Partly Cloudy
6:35 AM 39.2 °F 27.6 °F 32.0 °F 75% 29.94 in 10.0 mi West 28.8 mph 38.0 mph N/A   Clear
6:55 AM 39.2 °F 27.8 °F 32.0 °F 75% 29.95 in 10.0 mi WNW 27.6 mph 38.0 mph N/A   Clear
7:15 AM 39.2 °F 27.8 °F 32.0 °F 75% 29.95 in 10.0 mi WNW 27.6 mph 41.4 mph N/A   Partly Cloudy
7:35 AM 39.2 °F 27.6 °F 32.0 °F 75% 29.94 in 10.0 mi WNW 28.8 mph 35.7 mph N/A   Partly Cloudy
7:55 AM 41.0 °F 30.0 °F 32.0 °F 70% 29.95 in 10.0 mi WNW 28.8 mph 40.3 mph N/A   Partly Cloudy
8:15 AM 41.0 °F 30.5 °F 32.0 °F 70% 29.95 in 10.0 mi WNW 26.5 mph 40.3 mph N/A   Clear
8:35 AM 41.0 °F 31.4 °F 32.0 °F 70% 29.96 in 10.0 mi West 21.9 mph 36.8 mph N/A   Clear
8:55 AM 41.0 °F 30.0 °F 30.2 °F 65% 29.96 in 10.0 mi WNW 28.8 mph 36.8 mph N/A   Partly Cloudy
9:15 AM 42.8 °F 33.8 °F 30.2 °F 61% 29.97 in 10.0 mi WNW 21.9 mph 35.7 mph N/A   Scattered Clouds
9:35 AM 44.6 °F 35.5 °F 30.2 °F 57% 29.98 in 10.0 mi West 25.3 mph 40.3 mph N/A   Scattered Clouds
9:55 AM 42.8 °F 33.1 °F 30.2 °F 61% 29.99 in 10.0 mi West 25.3 mph 38.0 mph N/A   Partly Cloudy
10:15 AM 44.6 °F 35.7 °F 30.2 °F 57% 29.99 in 10.0 mi West 24.2 mph 36.8 mph N/A   Scattered Clouds
10:35 AM 44.6 °F 34.7 °F 30.2 °F 57% 29.98 in 10.0 mi WNW 29.9 mph 38.0 mph N/A   Scattered Clouds
10:55 AM 44.6 °F 34.7 °F 30.2 °F 57% 29.98 in 10.0 mi West 29.9 mph 42.6 mph N/A   Partly Cloudy
11:15 AM 44.6 °F 34.7 °F 28.4 °F 53% 29.98 in 10.0 mi West 29.9 mph 40.3 mph N/A   Clear
11:35 AM 44.6 °F 34.7 °F 28.4 °F 53% 29.97 in 10.0 mi West 29.9 mph 40.3 mph N/A   Clear
11:55 AM 44.6 °F 34.6 °F 28.4 °F 53% 29.96 in 10.0 mi WNW 31.1 mph 41.4 mph N/A   Clear
12:15 PM 44.6 °F 35.1 °F 28.4 °F 53% 29.97 in 10.0 mi West 27.6 mph 42.6 mph N/A   Clear
12:35 PM 44.6 °F 35.9 °F 28.4 °F 53% 29.97 in 10.0 mi West 23.0 mph 34.5 mph N/A   Clear
12:55 PM 44.6 °F 34.4 °F 26.6 °F 49% 29.96 in 10.0 mi West 32.2 mph 41.4 mph N/A   Clear
1:15 PM 44.6 °F 35.5 °F 26.6 °F 49% 29.96 in 10.0 mi West 25.3 mph 40.3 mph N/A   Clear
1:35 PM 44.6 °F 35.5 °F 26.6 °F 49% 29.96 in 10.0 mi West 25.3 mph 38.0 mph N/A   Clear
1:55 PM 44.6 °F 35.3 °F 26.6 °F 49% 29.96 in 10.0 mi West 26.5 mph 38.0 mph N/A   Clear
2:15 PM 44.6 °F 35.5 °F 26.6 °F 49% 29.96 in 10.0 mi West 25.3 mph 33.4 mph N/A   Clear
2:35 PM 44.6 °F 35.5 °F 26.6 °F 49% 29.95 in 10.0 mi West 25.3 mph 35.7 mph N/A   Clear
2:55 PM 44.6 °F 34.7 °F 26.6 °F 49% 29.94 in 10.0 mi West 29.9 mph 39.1 mph N/A   Clear
3:15 PM 44.6 °F 36.6 °F 24.8 °F 46% 29.95 in 10.0 mi West 19.6 mph 29.9 mph N/A   Clear
3:35 PM 42.8 °F 33.1 °F 26.6 °F 53% 29.92 in 10.0 mi WNW 25.3 mph 35.7 mph N/A   Clear
3:55 PM 42.8 °F 32.1 °F 26.6 °F 53% 29.91 in 10.0 mi WNW 31.1 mph 48.3 mph N/A   Clear
4:15 PM 41.0 °F 28.6 °F 24.8 °F 53% 29.89 in 10.0 mi WNW 38.0 mph 46.0 mph N/A   Clear
4:35 PM 41.0 °F 29.7 °F 24.8 °F 53% 29.90 in 10.0 mi WNW 31.1 mph 44.9 mph N/A   Clear
4:55 PM 41.0 °F 28.5 °F 26.6 °F 57% 29.88 in 10.0 mi WNW 39.1 mph 49.5 mph N/A   Clear
5:15 PM 39.2 °F 26.8 °F 23.0 °F 52% 29.89 in 10.0 mi WNW 33.4 mph 46.0 mph N/A   Clear
5:35 PM 39.2 °F 25.8 °F 24.8 °F 56% 29.88 in 10.0 mi NW 40.3 mph 50.6 mph N/A   Partly Cloudy
5:55 PM 39.2 °F 26.3 °F 26.6 °F 61% 29.89 in 10.0 mi West 36.8 mph 47.2 mph N/A   Clear
6:15 PM 39.2 °F 26.6 °F 26.6 °F 61% 29.89 in 10.0 mi WNW 34.5 mph 48.3 mph N/A   Clear
6:35 PM 39.2 °F 28.3 °F 26.6 °F 61% 29.90 in 10.0 mi WNW 25.3 mph 40.3 mph N/A   Clear
6:55 PM 39.2 °F 29.8 °F 24.8 °F 56% 29.91 in 10.0 mi West 18.4 mph 43.7 mph N/A   Clear
7:15 PM 39.2 °F 27.8 °F 24.8 °F 56% 29.91 in 10.0 mi WNW 27.6 mph 43.7 mph N/A   Clear
7:35 PM 39.2 °F 27.8 °F 24.8 °F 56% 29.91 in 10.0 mi NW 27.6 mph 44.9 mph N/A   Clear
7:55 PM 39.2 °F 25.8 °F 24.8 °F 56% 29.91 in 10.0 mi WNW 40.3 mph 48.3 mph N/A   Clear
8:15 PM 39.2 °F 27.2 °F 24.8 °F 56% 29.92 in 10.0 mi WNW 31.1 mph 47.2 mph N/A   Clear
8:35 PM 39.2 °F 27.8 °F 24.8 °F 56% 29.93 in 10.0 mi WNW 27.6 mph 46.0 mph N/A   Clear
8:55 PM 39.2 °F 27.2 °F 24.8 °F 56% 29.94 in 10.0 mi WNW 31.1 mph 41.4 mph N/A   Mostly Cloudy
9:15 PM 39.2 °F 28.0 °F 26.6 °F 61% 29.95 in 10.0 mi WNW 26.5 mph 39.1 mph N/A   Mostly Cloudy
9:35 PM 39.2 °F 27.0 °F 26.6 °F 61% 29.95 in 10.0 mi West 32.2 mph 40.3 mph N/A   Overcast
9:55 PM 39.2 °F 29.3 °F 26.6 °F 61% 29.95 in 10.0 mi WNW 20.7 mph 41.4 mph N/A   Overcast
10:15 PM 39.2 °F 27.4 °F 26.6 °F 61% 29.96 in 10.0 mi WNW 29.9 mph 42.6 mph N/A   Overcast
10:35 PM 39.2 °F 28.7 °F 24.8 °F 56% 29.97 in 10.0 mi WNW 23.0 mph 38.0 mph N/A   Mostly Cloudy
10:55 PM 39.2 °F 28.3 °F 26.6 °F 61% 29.98 in 10.0 mi WNW 25.3 mph 40.3 mph N/A   Mostly Cloudy
11:15 PM 39.2 °F 29.0 °F 26.6 °F 61% 29.98 in 10.0 mi WNW 21.9 mph 26.5 mph N/A   Mostly Cloudy
11:35 PM 39.2 °F 28.3 °F 24.8 °F 56% 29.97 in 10.0 mi WNW 25.3 mph 35.7 mph N/A   Mostly Cloudy
11:55 PM 39.2 °F 27.4 °F 26.6 °F 61% 29.97 in 10.0 mi West 29.9 mph 36.8 mph N/A   Mostly Cloudy